metlocid,date_time,avg_rh,std_rh,min_rh,max_rh,n_rh,n_comments
HOEM,11/11/87,47.29999924,,47.3,47.3,1,0
HOEM,11/12/87,47.64166705,5.211779899,40.3,57.5,12,0
HOEM,11/13/87,46.93333308,8.666059993,34,61.1,12,0
HOEM,11/14/87,43.77500025,9.078058068,26.8,54.1,12,0
HOEM,11/15/87,46.09166718,6.006581135,36.8,53.5,12,0
HOEM,11/16/87,41.41666667,5.490791582,33.5,49.2,12,0
HOEM,11/17/87,51.41666698,3.881619781,44,58.2,12,0
HOEM,11/18/87,55.00833289,4.768734489,47.9,61.3,12,0
HOEM,11/19/87,46.07500013,7.542862035,35.4,57.2,12,0
HOEM,11/20/87,37.60833279,4.34269695,31.4,45.6,12,0
HOEM,11/21/87,43.78333346,6.248174658,32.9,52.8,12,0
HOEM,11/22/87,41.56666692,6.258860603,30.5,50.9,12,0
HOEM,11/23/87,42.05833308,3.734716141,37,49.4,12,0
HOEM,11/24/87,41.29999987,5.617181335,33.5,49.3,12,0
HOEM,11/25/87,52.90833346,6.286125668,42.2,63.1,12,0
HOEM,11/26/87,46.56666724,4.74117979,40.4,57.8,12,0
HOEM,11/27/87,47.42500019,3.537364952,40.9,54.7,12,0
HOEM,11/28/87,46.60833327,4.079094676,41.6,53.3,12,0
HOEM,11/29/87,44.95833302,5.175195724,30,52,12,0
HOEM,11/30/87,45.04166683,7.179827913,29.9,55.4,12,0
HOEM,12/1/87,41.30833276,3.997376312,31.3,45.8,12,0
HOEM,12/2/87,38.24166663,6.627554204,27.4,47,12,0
HOEM,12/3/87,32.33333349,2.783827782,29.2,38,12,0
HOEM,12/4/87,39.11666679,6.739952851,31.2,49.1,12,0
HOEM,12/5/87,37.98333327,3.780292153,34.3,47,12,0
HOEM,12/6/87,40.37499952,5.471267843,30.8,48.6,12,0
HOEM,12/7/87,42.91666635,6.332575976,32.8,50.5,12,0
HOEM,12/8/87,41.60833327,4.092000434,35.2,48,12,0
HOEM,12/9/87,41.79166667,3.284525055,36.2,47.1,12,0
HOEM,12/10/87,45.22499975,4.67121284,38.1,53.2,12,0
HOEM,12/11/87,42.41666683,7.861625599,29.9,54.9,12,0
HOEM,12/12/87,45.12500032,5.008742293,35.3,50.4,12,0
HOEM,12/13/87,65.71666749,7.947422607,51.8,74.5,12,0
HOEM,12/14/87,70.22500038,2.498773199,66.8,73.9,12,0
HOEM,12/15/87,65.29999987,6.287071751,54,73,12,0
HOEM,12/16/87,50.38333321,4.121524752,43,58.8,12,0
HOEM,12/17/87,51.02500057,14.05845836,39.4,75.4,12,0
HOEM,12/18/87,62.14166641,4.199232821,55.5,69.2,12,0
HOEM,12/19/87,56.39166609,8.674985725,42.3,69.1,12,0
HOEM,12/20/87,53.1833334,4.897092298,45.2,60.5,12,0
HOEM,12/21/87,48.24166616,1.703183304,46.3,51.3,12,0
HOEM,12/22/87,57.38333289,5.571491657,48.1,66.2,12,0
HOEM,12/23/87,56.87499968,4.472567836,49.7,62.2,12,0
HOEM,12/24/87,65.55000051,7.857076519,55.6,78.8,12,0
HOEM,12/25/87,66.76666673,4.955131963,56.7,73,12,0
HOEM,12/26/87,61.8083334,7.875676733,53.5,73.9,12,0
HOEM,12/27/87,55.07500013,2.940044195,51.4,61.6,12,0
HOEM,12/28/87,64.21666622,3.96480698,57.6,70.2,12,0
HOEM,12/29/87,72.17500114,4.212778626,65.1,77.3,12,0
HOEM,12/30/87,63.28333441,5.175964733,54.4,70.1,12,0
HOEM,12/31/87,66.6916666,6.585032197,53.8,73.6,12,0
HOEM,1/1/88,65.51666673,10.31775472,52.1,77.7,12,0
HOEM,1/2/88,61.7833341,9.393889679,49.7,77.8,12,0
HOEM,1/3/88,50.3999993,5.091168315,43.1,59.1,12,0
HOEM,1/4/88,59.19166629,4.060330542,54,65.6,12,0
HOEM,1/5/88,57.22500038,6.688814501,48.3,73.8,12,0
HOEM,1/6/88,67.64166641,5.133748433,59.8,76.1,12,0
HOEM,1/7/88,64.76666609,4.706539313,57.8,73.2,12,0
HOEM,1/8/88,58.81666565,7.529557146,47.7,70.2,12,0
HOEM,1/9/88,57.20833365,7.355697573,46.7,67.5,12,0
HOEM,1/10/88,74,5.85227153,61.5,81.2,12,0
HOEM,1/11/88,62.63333416,9.355245265,49.8,76.4,12,0
HOEM,1/12/88,59.4416666,5.09749713,52.6,68.8,12,0
HOEM,1/13/88,54.40833378,4.268800142,48.1,61.5,12,0
HOEM,1/14/88,53.45000013,6.156371082,45.9,62.8,12,0
HOEM,1/15/88,68.46666654,3.420082544,60.4,71.5,12,0
HOEM,1/16/88,46.11666679,16.2147431,27.2,71.8,12,0
HOEM,1/17/88,56.24166679,5.905846041,51.1,68,12,0
HOEM,1/18/88,51.03333346,5.004421912,44.8,60.3,12,0
HOEM,1/19/88,48.19999981,6.978148238,36.1,60.3,12,0
HOEM,1/20/88,53.60000006,8.625121376,43.1,66.7,12,0
HOEM,1/21/88,54.98333359,5.245228854,46.8,62.4,12,0
HOEM,1/22/88,64.23333327,10.75473133,48.9,85,12,0
HOEM,1/23/88,64.61666616,12.18873035,48.1,83.6,12,0
HOEM,1/24/88,61.83333333,5.938982735,49.5,71.2,12,0
HOEM,1/25/88,61.04166635,12.24421586,49.7,82.3,12,0
HOEM,1/26/88,50.12500064,7.970414603,38.8,65.4,12,0
HOEM,1/27/88,43.47499975,8.845967504,36.1,62,12,0
HOEM,1/28/88,56.50000032,5.436408962,46.9,64.5,12,0
HOEM,1/29/88,52.80833403,11.08147247,41.2,69.3,12,0
HOEM,1/30/88,54.24166679,19.83855134,31.2,79.4,12,0
HOEM,1/31/88,76.59166654,6.061271121,65.4,84.8,12,0
HOEM,2/1/88,65.91666635,17.03967697,39.1,87,12,0
HOEM,2/2/88,62.65833282,19.75009494,37.1,88.2,12,0
HOEM,2/3/88,57.29166635,15.85935067,38,79.6,12,0
HOEM,2/4/88,48.08333365,16.18685438,23.6,76.8,12,0
HOEM,2/5/88,54.35000006,8.679075761,45.2,72,12,0
HOEM,2/6/88,57.21666686,11.24599621,45.8,80.3,12,0
HOEM,2/7/88,58.21666622,12.29203963,42.6,79.9,12,0
HOEM,2/8/88,56.08333302,13.61061307,41.1,82.4,12,0
HOEM,2/9/88,54.76666705,15.93597139,32.6,78.8,12,0
HOEM,2/10/88,52.5583334,15.26877092,35.2,80.1,12,0
HOEM,2/11/88,67.95000013,11.98442231,47.3,79.6,12,0
HOEM,2/12/88,74.18333371,4.846148127,65.9,80.6,12,0
HOEM,2/13/88,49.22500006,16.00688003,37.3,76.4,12,0
HOEM,2/14/88,48.84166622,10.54785256,37.6,67.1,12,0
HOEM,2/15/88,65.26666609,10.29459985,48,81.1,12,0
HOEM,2/16/88,59.30833308,11.57061001,43.6,76.6,12,0
HOEM,2/17/88,59.24999968,13.06149722,39.5,78.2,12,0
HOEM,2/18/88,60.74166679,7.178435312,46.5,70.3,12,0
HOEM,2/19/88,54.88333352,13.18813734,36.4,74,12,0
HOEM,2/20/88,53.77500025,12.46049354,39.7,77.3,12,0
HOEM,2/21/88,62.68333276,16.17943828,40.3,81.1,12,0
HOEM,2/22/88,69.74166648,9.181548756,58.1,80.5,12,0
HOEM,2/23/88,66.76666641,13.35081368,44.7,82.4,12,0
HOEM,2/24/88,51.39166689,12.92372445,30.9,69.3,12,0
HOEM,2/25/88,70.35833359,11.65484394,47.2,84.4,12,0
HOEM,2/26/88,64.84999943,14.69071958,37.4,82.1,12,0
HOEM,2/27/88,72.59166622,11.60418884,48.3,84.1,12,0
HOEM,2/28/88,75.08333333,4.380292625,68.8,80.5,12,0
HOEM,2/29/88,71.05833244,9.455969866,47.2,79.2,12,0
HOEM,3/1/88,66.15833251,13.98807526,45,82.2,12,0
HOEM,3/2/88,67.42499955,9.087366855,51.6,80.7,12,0
HOEM,3/3/88,67.89166673,12.17862933,46.2,80.3,12,0
HOEM,3/4/88,64.26666673,12.26646057,38.9,76,12,0
HOEM,3/5/88,63.82500013,10.75758682,45.9,75.8,12,0
HOEM,3/6/88,75.42500051,8.685110783,55.6,83.4,12,0
HOEM,3/7/88,68.04166698,13.21971389,44.5,82.5,12,0
HOEM,3/8/88,74.64166768,5.588698107,64.8,81.7,12,0
HOEM,3/9/88,68.89999994,13.33552954,45.9,82.1,12,0
HOEM,3/10/88,59.53333251,12.04871381,40.7,82.7,12,0
HOEM,3/11/88,73.52499994,9.532826211,58.5,83.4,12,0
HOEM,3/12/88,77.58333397,7.530525123,61.1,82.9,12,0
HOEM,3/13/88,75.95000076,5.690422091,67.9,82.2,12,0
HOEM,3/14/88,63.28333251,21.17201549,32.2,82.8,12,0
HOEM,3/15/88,76.85833232,6.62631952,60.1,83.1,12,0
HOEM,3/16/88,78.24166679,3.818723813,72.3,82.3,12,0
HOEM,3/17/88,63.97499975,18.58802773,35.1,80.1,12,0
HOEM,3/18/88,77.30833308,4.222764184,71.2,82.6,12,0
HOEM,3/19/88,69.0833327,6.053674396,56.6,77.1,12,0
HOEM,3/20/88,77.98333359,2.80156893,72.3,83.3,12,0
HOEM,3/21/88,75.99166648,10.91733091,54.8,83.5,12,0
HOEM,3/22/88,73.25000032,7.874065553,60.2,84.8,12,0
HOEM,3/23/88,77.68333371,10.15371247,56.2,86.5,12,0
HOEM,3/24/88,71.46666559,10.56730176,53.8,86.2,12,0
HOEM,3/25/88,80.56666692,3.190135612,73.9,84.2,12,0
HOEM,3/26/88,80.37500032,9.588263335,55.8,87.5,12,0
HOEM,3/27/88,82.36666679,3.783535323,75.8,87.7,12,0
HOEM,3/28/88,77.36666489,9.019809137,50.5,83.2,12,0
HOEM,3/29/88,52.08333365,7.873641635,45.2,67.7,12,0
HOEM,3/30/88,69.65000057,16.32814162,47.8,84,12,0
HOEM,3/31/88,50.50000064,14.52339877,41.9,83.4,12,0
HOEM,4/1/88,81.02499962,6.951143526,66.8,87.6,12,0
HOEM,4/2/88,79.72500102,3.881688553,75,84.8,12,0
HOEM,4/3/88,72.875,6.136199381,64.8,83.6,12,0
HOEM,4/4/88,82.2166659,1.583341255,80,84.7,12,0
HOEM,4/5/88,80.43333435,1.181165325,78.5,81.9,12,0
HOEM,4/6/88,81.07500013,0.813662511,79.6,82.1,12,0
HOEM,4/7/88,79.91666667,1.086975703,78.6,81.8,12,0
HOEM,4/8/88,79.8416659,0.608213943,79,80.9,12,0
HOEM,4/9/88,77.69166692,1.413222392,75.7,79.7,12,0
HOEM,4/10/88,79.83333397,5.579887808,69.8,85.5,12,0
HOEM,4/11/88,79.69166629,4.005782311,71.7,85.2,12,0
HOEM,4/12/88,79.38333257,1.236441451,78.2,82.6,12,0
HOEM,4/13/88,78.78333346,2.58416017,75.5,81.9,12,0
HOEM,4/14/88,77.30833308,1.082471264,74.6,78.9,12,0
HOEM,4/15/88,79.74166679,0.816264327,78.3,80.8,12,0
HOEM,4/16/88,78.30000051,1.170858828,76.2,79.9,12,0
HOEM,4/17/88,77.34166654,7.622866465,64.3,84.9,12,0
HOEM,4/18/88,83.05833308,0.494439139,82.2,83.9,12,0
HOEM,4/19/88,74.35000038,9.228956447,61.6,84.1,12,0
HOEM,4/20/88,69.80833371,12.47488034,50.4,87,12,0
HOEM,4/21/88,50.06666692,1.358698539,47.1,52.4,12,0
HOEM,4/22/88,47.125,0.964011886,45.5,48.2,12,0
HOEM,4/23/88,52.44166629,8.642543347,43.6,76.1,12,0
HOEM,4/24/88,71.27500057,14.17662118,51.9,84.7,12,0
HOEM,4/25/88,65.44166597,19.26133444,44.3,84.4,12,0
HOEM,4/26/88,41.13333352,6.705402674,31.8,50.2,12,0
HOEM,4/27/88,67.39999962,13.1460326,51.1,86.5,12,0
HOEM,4/28/88,67.34166749,12.14731262,53.6,84.3,12,0
HOEM,4/29/88,69.40000057,12.18426732,48.5,84.9,12,0
HOEM,4/30/88,53.01666609,9.109319169,47.4,73.1,12,0
HOEM,5/1/88,50.3333327,7.102026227,46.5,72.2,12,0
HOEM,5/2/88,73.10000006,11.87326979,55.8,86.5,12,0
HOEM,5/3/88,65.01666737,7.41016942,55.9,76.6,12,0
HOEM,5/4/88,77.90833282,9.503631924,59.6,85.4,12,0
HOEM,5/5/88,79.05833308,1.798716629,76.9,81.8,12,0
HOEM,5/6/88,76.43333308,0.479267281,75.6,77.1,12,0
HOEM,5/7/88,75.65833314,5.024387925,63.8,79.5,12,0
HOEM,5/8/88,61.66666667,6.34684357,53.1,70.7,12,0
HOEM,5/9/88,71.41666667,1.143226407,69.3,73.5,12,0
HOEM,5/10/88,74.94999886,4.705025785,66.8,82.1,12,0
HOEM,5/11/88,83.22500038,0.984540935,82.1,84.8,12,0
HOEM,5/12/88,83.06666629,0.598988978,81.8,83.8,12,0
HOEM,5/13/88,81.60833422,0.485157501,80.8,82.2,12,0
HOEM,5/14/88,81.47500102,0.911665542,79.8,82.5,12,0
HOEM,5/15/88,64.25,15.20756273,42,79.2,12,0
HOEM,5/16/88,48.79166667,6.980030793,38.8,60.8,12,0
HOEM,5/17/88,55.38333352,12.37995678,45,79.9,12,0
HOEM,5/18/88,81.375,1.088890394,79.8,83,12,0
HOEM,5/19/88,61.31666692,19.21986822,38.1,81,12,0
HOEM,5/20/88,50.875,13.32790076,38.2,80.1,12,0
HOEM,5/21/88,47.98333327,20.26698408,34.6,82,12,0
HOEM,5/22/88,38.28333378,1.437063259,35.2,40.1,12,0
HOEM,5/23/88,43.93333276,8.935152836,37.7,68.7,12,0
HOEM,5/24/88,45.37499968,10.43517918,36.1,71.9,12,0
HOEM,5/25/88,70.76666673,16.78366702,38.4,83.7,12,0
HOEM,5/26/88,46.05833403,14.43219072,34.4,76.3,12,0
HOEM,5/27/88,66.73333295,18.75421544,38.3,81.1,12,0
HOEM,5/28/88,79.72499975,0.453521956,79.1,80.4,12,0
HOEM,5/29/88,74.88333321,3.269369625,70.1,79.2,12,0
HOEM,5/30/88,73.34166654,2.578392525,68.2,75.1,12,0
HOEM,5/31/88,74.10000038,5.078296369,63.4,78.4,12,0
HOEM,6/1/88,74.96666654,1.024547523,73.3,76.5,12,0
HOEM,6/2/88,73.17499987,1.083869366,71.1,74.3,12,0
HOEM,6/3/88,66.19166629,8.084605191,43.6,71.3,12,0
HOEM,6/4/88,36.0583334,1.23248338,34.4,38.4,12,0
HOEM,6/5/88,57.07500076,18.27930433,36.7,78.2,12,0
HOEM,6/6/88,51.66666698,11.86433426,37.7,77,12,0
HOEM,6/7/88,57.95833333,16.30295296,39.3,78.1,12,0
HOEM,6/8/88,72.27499994,4.194395408,63.8,76.9,12,0
HOEM,6/9/88,52.55833324,26.34938211,25.7,80.9,12,0
HOEM,6/10/88,61.74999984,24.14025293,25,80.1,12,0
HOEM,6/11/88,53.05000051,15.17393133,35.5,76.8,12,0
HOEM,6/12/88,44.75000016,12.29356884,31.9,73.9,12,0
HOEM,6/13/88,73.65000025,0.971878368,72.2,75.3,12,0
HOEM,6/14/88,63.25000032,17.24336506,31.8,73.7,12,0
HOEM,6/15/88,60.62500032,18.9695518,32.8,79.8,12,0
HOEM,6/16/88,74.07499949,4.167650134,64,78.2,12,0
HOEM,6/17/88,65.02499962,16.96451546,34.6,78,12,0
HOEM,6/18/88,57.2083327,16.58906779,35.4,76.4,12,0
HOEM,6/19/88,45.383334,15.48963568,31,72.4,12,0
HOEM,6/20/88,48.03333314,15.40344299,35.5,76.6,12,0
HOEM,6/21/88,55.64166641,20.35183521,34,77.9,12,0
HOEM,6/22/88,76.60833295,0.869125193,75.6,78,12,0
HOEM,6/23/88,70.5833327,3.221753466,66.6,75.2,12,0
HOEM,6/24/88,68.39166705,1.94022423,64.6,70.5,12,0
HOEM,6/25/88,69.58333397,0.734641536,68.6,70.9,12,0
HOEM,6/26/88,69.51666768,0.684680913,68.6,70.6,12,0
HOEM,6/27/88,66.81666724,2.021176079,63.4,69.1,12,0
HOEM,6/28/88,60.78333314,1.04083305,59.1,62.1,12,0
HOEM,6/29/88,42.95833333,7.758920076,36.1,60.4,12,0
HOEM,6/30/88,45.29999987,11.02154887,33.7,62.8,12,0
HOEM,7/1/88,53.78333314,17.63667825,27.4,74.1,12,0
HOEM,7/2/88,77.22500038,3.672286785,65.7,79,12,0
HOEM,7/3/88,76.42499924,0.774743601,75.4,77.6,12,0
HOEM,7/4/88,67.84166622,5.034689745,60.5,76.5,12,0
HOEM,7/5/88,64.70000076,14.4780081,38.2,77.2,12,0
HOEM,7/6/88,68.48333359,4.223490821,60.4,72.7,12,0
HOEM,7/7/88,37.68333276,11.256176,31.8,70.2,12,0
HOEM,7/8/88,44.90833282,10.58785426,33.1,56,12,0
HOEM,7/9/88,70.54999924,3.582912544,66.3,75.7,12,0
HOEM,7/10/88,56.89999946,16.01510604,30.9,73.5,12,0
HOEM,7/11/88,54.87500064,13.84236785,30.7,72.9,12,0
HOEM,7/12/88,69.15833346,1.683858629,67,71.7,12,0
HOEM,7/13/88,55.83333302,16.64857724,33.9,70.5,12,0
HOEM,7/14/88,42.64166673,7.933754542,36.3,64.7,12,0
HOEM,7/15/88,71.75833321,10.62171548,40.8,76.4,12,0
HOEM,7/16/88,65.5666666,10.22193162,43.1,74.5,12,0
HOEM,7/17/88,71.65833219,3.13932793,66.2,74.5,12,0
HOEM,7/18/88,48.52500121,20.27255827,23.7,69.8,12,0
HOEM,7/19/88,67.96666718,1.956497335,64.2,70.5,12,0
HOEM,7/20/88,66.88333321,0.787207385,65.8,68.7,12,0
HOEM,7/21/88,54.44166629,9.939951677,38.8,66.2,12,0
HOEM,7/22/88,60.67500083,4.511223741,52.7,66,12,0
HOEM,7/23/88,60.77499962,7.525969839,42.8,68.7,12,0
HOEM,7/24/88,66.55833371,1.113927601,65.1,68.8,12,0
HOEM,7/25/88,62.48333327,1.402487991,59.8,64.4,12,0
HOEM,7/26/88,63.67500114,2.162543374,60.3,66.4,12,0
HOEM,7/27/88,64.54166635,0.481396804,63.8,65.4,12,0
HOEM,7/28/88,65.10000006,0.96200551,63.3,66.5,12,0
HOEM,7/29/88,68.60833359,0.494438344,67.4,69.1,12,0
HOEM,7/30/88,61.81666724,11.23386401,38.7,68.9,12,0
HOEM,7/31/88,44.45833365,11.14535911,35.7,70.4,12,0
HOEM,8/1/88,62.78333441,15.11085385,43.4,78.3,12,0
HOEM,8/2/88,64.54166603,15.19404528,40.7,76.4,12,0
HOEM,8/3/88,74.14166578,0.745237402,72.5,74.9,12,0
HOEM,8/4/88,70.91666667,1.317596547,68.9,72.5,12,0
HOEM,8/5/88,62.25000032,6.42318249,50.4,68.9,12,0
HOEM,8/6/88,59.4666659,4.579863644,53.2,65.5,12,0
HOEM,8/7/88,66.75833352,6.627141559,58.2,76.6,12,0
HOEM,8/8/88,72.64166641,1.437458883,70.5,75.5,12,0
HOEM,8/9/88,69.19166692,1.212404268,65.5,70.1,12,0
HOEM,8/10/88,35.34166638,3.703182507,30.5,41,12,0
HOEM,8/11/88,30.21666654,1.21343445,28.7,33.1,12,0
HOEM,8/12/88,64.74166775,14.89542087,35.2,76.9,12,0
HOEM,8/13/88,63.23333391,11.79571117,39.8,73.5,12,0
HOEM,8/14/88,35.85833327,3.648276523,32.2,45.5,12,0
HOEM,8/15/88,37.68333308,7.933339803,32.8,60,12,0
HOEM,8/16/88,36.74166648,8.194062532,32,61.9,12,0
HOEM,8/17/88,66.61666648,10.34960045,39.4,74.2,12,0
HOEM,8/18/88,40.6916666,13.18314613,32.5,69.2,12,0
HOEM,8/19/88,40.62500016,15.19540119,30.9,78,12,0
HOEM,8/20/88,48.39999962,18.90651689,30.9,75.3,12,0
HOEM,8/21/88,45.30833308,8.826557505,35.6,64.3,12,0
HOEM,8/22/88,38.64166689,6.431804256,27.6,48.3,12,0
HOEM,8/23/88,70.84166654,6.180976297,62.4,76.5,12,0
HOEM,8/24/88,50.49999968,17.90479844,32,75.1,12,0
HOEM,8/25/88,57.6166652,15.80424699,35.1,73.5,12,0
HOEM,8/26/88,53.79999987,9.598768615,41.3,70.2,12,0
HOEM,8/27/88,65.7749993,14.37833737,33.5,76.1,12,0
HOEM,8/28/88,30.62499984,1.955005177,27,33.9,12,0
HOEM,8/29/88,48.80000051,21.02703937,28.5,77.3,12,0
HOEM,8/30/88,49.62499968,13.20276271,37.1,77.6,12,0
HOEM,8/31/88,48.25833289,19.79561204,33.7,77.7,12,0
HOEM,9/1/88,48.13333384,19.41856317,32,78.2,12,0
HOEM,9/2/88,46.70833302,14.227915,33.2,70.6,12,0
HOEM,9/3/88,44.49166679,13.00212971,32.2,62.5,12,0
HOEM,9/4/88,74.16666667,3.436525282,67.2,77,12,0
HOEM,9/5/88,69.91666571,5.702763876,55.6,74.5,12,0
HOEM,9/6/88,72.85000038,0.855463196,71.6,74.1,12,0
HOEM,9/7/88,68.89166641,1.936941204,66.5,72.2,12,0
HOEM,9/8/88,70.23333422,1.920384894,66.8,72.4,12,0
HOEM,9/9/88,69.7083327,3.033586712,66.5,75.6,12,0
HOEM,9/10/88,74.60833422,0.868078438,73,75.5,12,0
HOEM,9/11/88,71.09999975,0.509901652,70.4,71.9,12,0
HOEM,9/12/88,70.49166807,0.663953142,69.7,71.8,12,0
HOEM,9/13/88,70.71666463,1.193797456,69.2,73.6,12,0
HOEM,9/14/88,67.41666603,2.890055952,61.1,70.2,12,0
HOEM,9/15/88,58.23333391,20.51909732,25.2,73.9,12,0
HOEM,9/16/88,73.51666641,0.44278745,72.7,74.4,12,0
HOEM,9/17/88,62.26666705,11.27227757,36.2,73.4,12,0
HOEM,9/18/88,56.25000079,18.48608866,28.9,74,12,0
HOEM,9/19/88,61.51666641,13.75412829,32.5,74.2,12,0
HOEM,9/20/88,69.55833308,5.506930248,56,74.7,12,0
HOEM,9/21/88,65.54166667,4.687209157,55.1,69.5,12,0
HOEM,9/22/88,67.76666737,5.556869507,57.6,72.9,12,0
HOEM,9/23/88,57.79999955,15.42695348,33.2,71.2,12,0
HOEM,9/24/88,50.38333416,14.65914795,32.8,74.8,12,0
HOEM,9/25/88,52.50833257,16.3675087,33.8,75.2,12,0
HOEM,9/26/88,73.21666718,3.190279357,66.9,75.9,12,0
HOEM,9/27/88,69.68333181,4.427359464,64.2,75.1,12,0
HOEM,9/28/88,59.71666622,7.023962955,50.6,72.6,12,0
HOEM,9/29/88,62.39166705,12.04698901,37.8,73.9,12,0
HOEM,9/30/88,40.51666641,9.815649314,33.7,61.5,12,0
HOEM,10/1/88,33.43333292,3.937773294,28.6,41.1,12,0
HOEM,10/2/88,64.05000051,5.323617706,55.2,71.9,12,0
HOEM,10/3/88,58.29999987,21.46366903,22.9,74.9,12,0
HOEM,10/4/88,66.25833321,4.85806883,57.9,74.2,12,0
HOEM,10/5/88,48.85833295,15.96248156,30.2,71.2,12,0
HOEM,10/6/88,49.11666616,10.96447496,34.3,65.8,12,0
HOEM,10/7/88,65.40833314,8.567640064,48.5,72.2,12,0
HOEM,10/8/88,64.50000032,4.163259859,57.7,70.4,12,0
HOEM,10/9/88,58.29166667,9.056534785,41,67,12,0
HOEM,10/10/88,52.70833317,15.71770603,27.6,66.9,12,0
HOEM,10/11/88,49.89166721,18.61936798,28.1,73.5,12,0
HOEM,10/12/88,35.60833327,8.78588294,29.4,52.4,12,0
HOEM,10/13/88,36.31666692,12.13019078,29.4,71.4,12,0
HOEM,10/14/88,57.85833391,10.12202492,41.4,71.4,12,0
HOEM,10/15/88,52.79166619,19.79868942,27.3,73.1,12,0
HOEM,10/16/88,62.96666686,8.384654549,53.7,74,12,0
HOEM,10/17/88,58.33333302,8.434919916,43.8,71.5,12,0
HOEM,10/18/88,58.02499994,10.7591076,43.1,74.2,12,0
HOEM,10/19/88,39.75000016,9.675884206,29.1,56.2,12,0
HOEM,10/20/88,64.34166686,4.348345555,58.5,73,12,0
HOEM,10/21/88,51.55833403,13.25515159,38.5,74.8,12,0
HOEM,10/22/88,50.97499943,10.2413713,37.6,66.6,12,0
HOEM,10/23/88,65.67500051,6.075004619,49,72.6,12,0
HOEM,10/24/88,60.29166667,7.090385164,49.5,70.8,12,0
HOEM,10/25/88,56.79999987,11.47511107,38.8,71.3,12,0
HOEM,10/26/88,57.14166673,11.35000658,38.8,72.4,12,0
HOEM,10/27/88,55.87499936,9.334795265,40,71.6,12,0
HOEM,10/28/88,59.5333341,12.60644381,42.7,74.3,12,0
HOEM,10/29/88,62.08333302,8.868415227,46.8,73.5,12,0
HOEM,10/30/88,59.7916673,9.33765282,45.6,73.3,12,0
HOEM,10/31/88,61.85833295,7.898843939,47.7,71.7,12,0
HOEM,11/1/88,58.30833403,6.861812792,48.7,67.5,12,0
HOEM,11/2/88,58.75833321,6.738823724,45.7,66.3,12,0
HOEM,11/3/88,67.51666673,3.787500373,63.5,72.4,12,0
HOEM,11/4/88,58.75000095,5.774788443,51.4,69.3,12,0
HOEM,11/5/88,55.58333333,7.763766799,46.1,68.9,12,0
HOEM,11/6/88,46.79999971,12.34967774,30.3,65.6,12,0
HOEM,11/7/88,53.25833352,4.660366672,40.5,58.5,12,0
HOEM,11/8/88,58.01666705,4.733985028,50.5,67.8,12,0
HOEM,11/9/88,64.55833308,6.147647034,56.1,72.9,12,0
HOEM,11/10/88,63.44166629,6.425723447,54,72.4,12,0
HOEM,11/11/88,65.04999987,5.794432896,54.8,70.9,12,0
HOEM,11/12/88,55.93333435,11.59250059,39.5,72.5,12,0
HOEM,11/13/88,49.96666622,8.373478648,40.6,65.1,12,0
HOEM,11/14/88,62.96666718,3.89086059,58.3,69.8,12,0
HOEM,11/15/88,63.96666622,5.752205923,54.5,71.1,12,0
HOEM,11/16/88,58.10833359,7.015367765,43.7,67.4,12,0
HOEM,11/17/88,46.59999975,16.80914243,24.5,67,12,0
HOEM,11/18/88,58.77499994,5.975879277,47.5,69.5,12,0
HOEM,11/19/88,51.16666667,3.690856635,45.9,58.3,12,0
HOEM,11/20/88,54.31666692,4.48347148,47.3,61.1,12,0
HOEM,11/21/88,59.90833346,4.468974969,54,68,12,0
HOEM,11/22/88,61.83333333,5.9615943,55.3,69.9,12,0
HOEM,11/23/88,60.77499994,2.37682933,57.4,64.1,12,0
HOEM,11/24/88,58.17500019,4.702828013,47.7,62.4,12,0
HOEM,11/25/88,63.28333314,2.974385373,57.6,66.7,12,0
HOEM,11/26/88,59.76666673,4.88175297,49.4,65.5,12,0
HOEM,11/27/88,51.15833346,5.355448859,45.5,61.2,12,0
HOEM,11/28/88,50.15833314,3.352192762,43.2,53.9,12,0
HOEM,11/29/88,56.64999962,2.441124487,53,60.1,12,0
HOEM,11/30/88,53.41666635,3.694673078,49,57.9,12,0
HOEM,12/1/88,54.05833371,2.99650039,49.9,57.7,12,0
HOEM,12/2/88,55.9333334,3.179861414,51.8,62.4,12,0
HOEM,12/3/88,55.55833276,7.29625721,46.9,66,12,0
HOEM,12/4/88,50.05833371,2.143683733,46.7,53.2,12,0
HOEM,12/5/88,50.29999955,1.812080294,47.3,53.6,12,0
HOEM,12/6/88,43.00833384,6.954979747,34.3,54.5,12,0
HOEM,12/7/88,56.71666622,4.248814063,51.6,63.1,12,0
HOEM,12/8/88,51.27499962,3.149943272,47.5,55.6,8,0
HOEM,12/9/88,53.83333397,2.598205209,51.5,57.4,6,0
HOEM,12/10/88,57.4666659,3.917993486,53.6,64,6,0
HOEM,12/11/88,54.61666679,3.730638029,49.9,59.5,6,0
HOEM,12/12/88,52.41666667,1.643675255,50.3,54.5,6,0
HOEM,12/13/88,60.93333435,2.711949546,56.7,64.8,6,0
HOEM,12/14/88,55.4166673,2.982895394,51.2,58.2,6,0
HOEM,12/15/88,49.76666641,1.25166572,47.6,51.3,6,0
HOEM,12/16/88,47.58333333,1.331790866,45,48.7,6,0
HOEM,12/17/88,43.7166659,4.730503749,38.5,49.8,6,0
HOEM,12/18/88,60.20000013,3.060717633,54.9,64.2,6,0
HOEM,12/19/88,62.9166673,2.656627125,58.7,65.6,6,0
HOEM,12/20/88,52.41666603,4.301356219,47.8,57.1,6,0
HOEM,12/21/88,38.08333333,11.13488544,26.9,50.4,6,0
HOEM,12/22/88,60.9166673,4.475005764,55.3,65.9,6,0
HOEM,12/23/88,52.05000051,2.999166983,47,54.7,6,0
HOEM,12/24/88,61.26666705,3.900085414,55.2,65,6,0
HOEM,12/25/88,63.65000089,2.670393438,59.2,65.5,6,0
HOEM,12/26/88,64.25000127,2.896032995,59.6,67.3,6,0
HOEM,12/27/88,62.70000013,2.706288611,59.3,65.1,6,0
HOEM,12/28/88,66.66666603,2.843706063,62.7,69.9,6,0
HOEM,12/29/88,63.06666692,1.58324529,60.7,65.5,6,0
HOEM,12/30/88,65.26666641,1.207752751,63.6,66.5,6,0
HOEM,12/31/88,62.29999924,3.308171036,57.9,65.9,6,0
HOEM,1/1/89,58.75,3.799341265,53.9,62.6,6,0
HOEM,1/2/89,59.45000013,4.26180752,55.5,66.9,6,0
HOEM,1/3/89,54.4666659,6.989037629,44.4,64.2,6,0
HOEM,1/4/89,61.46666718,9.031205258,45.9,68.4,6,0
HOEM,1/5/89,52.54999987,2.953472297,47.8,54.8,6,0
HOEM,1/6/89,51.11666743,2.853360592,48.2,54.7,6,0
HOEM,1/7/89,59.65000089,5.792667641,53.9,66.8,6,0
HOEM,1/8/89,64.06666629,4.955670917,55.8,69.4,6,0
HOEM,1/9/89,60.7833341,2.956631766,56.9,64.8,6,0
HOEM,1/10/89,64.59999975,3.36035691,60,68.7,6,0
HOEM,1/11/89,62.43333181,3.287957181,56.6,65.7,6,0
HOEM,1/12/89,58.21666654,0.711102434,57.5,59.1,6,0
HOEM,1/13/89,62.96666718,2.466305738,60.4,66.2,6,0
HOEM,1/14/89,63.76666641,1.907528673,61.3,66.1,6,0
HOEM,1/15/89,66.88333384,1.287504409,65.4,68.9,6,0
HOEM,1/16/89,66.59999975,1.088118566,65.5,68.5,6,0
HOEM,1/17/89,66.0499986,1.578290712,63.8,68.5,6,0
HOEM,1/18/89,67.44999949,3.506992648,62.5,70.2,6,0
HOEM,1/19/89,59.08333333,4.674790639,52.9,64,6,0
HOEM,1/20/89,56.13333321,2.403884736,52.7,59.1,6,0
HOEM,1/21/89,54.95000013,3.214187473,51.8,59.1,6,0
HOEM,1/22/89,56.31666692,3.094780827,52.3,61,6,0
HOEM,1/23/89,49.16666667,7.235099357,42.5,58.8,6,0
HOEM,1/24/89,62.51666705,1.831302951,60.1,64.4,6,0
HOEM,1/25/89,64.15000025,2.496998015,61,66.5,6,0
HOEM,1/26/89,61.94999949,4.924531314,55.1,66.9,6,0
HOEM,1/27/89,61.18333435,3.829056494,56.2,65.9,6,0
HOEM,1/28/89,61.25,1.942936787,58.6,64.4,6,0
HOEM,1/29/89,55.94999949,7.386405165,46.5,64.6,6,0
HOEM,1/30/89,47.51666641,9.854017729,33.5,57.6,6,0
HOEM,1/31/89,52.41666667,9.746674582,40.5,65,6,0
HOEM,2/1/89,54.74999936,2.72891965,53.1,60,6,0
HOEM,2/2/89,62.23333422,2.320920552,60.1,65.4,6,0
HOEM,2/3/89,63.7166659,2.879871798,60.5,67.1,6,0
HOEM,2/4/89,59.48333295,2.818805994,56.8,63.7,6,0
HOEM,2/5/89,62.08333333,1.746329065,59.3,64.2,6,0
HOEM,2/6/89,63.08333333,1.360025654,61.7,65.3,6,0
HOEM,2/7/89,57.96666718,3.400392212,53.4,62.2,6,0
HOEM,2/8/89,55.84999975,0.878066213,54.6,56.8,6,0
HOEM,2/9/89,55.68333244,1.328783754,53.6,57.1,6,0
HOEM,2/10/89,56.91666603,2.535679147,53.3,60.2,6,0